GW4768 Weather Reports


Display with metric or nautical units.
time (UTC)temp
F
wind
direction
speed
MPH
gust
MPH
rain 1hr
in
rain 24hr
in
rain mn
in
humidity
%
barometer
mb
20260508140015 49 211 1.0 4.0 0.00 0.00 0.00 66 1017.3
20260508133028 46 217 3.0 9.0 0.00 0.00 0.00 67 1017.2
20260508131512 46 237 3.0 6.0 0.00 0.00 0.00 67 1017.1
20260508130008 44 177 0.0 2.0 0.00 0.00 0.00 70 1016.9
20260508124525 44 202 5.0 8.0 0.00 0.00 0.00 69 1016.7
20260508123025 46 232 2.0 6.0 0.00 0.00 0.00 65 1016.6
20260508121523 47 177 2.0 9.0 0.00 0.00 0.00 64 1016.5
20260508120021 46 227 2.0 5.0 0.00 0.00 0.00 66 1016.6
20260508111515 47 168 1.0 5.0 0.00 0.00 0.00 64 1016.6
20260508110012 47 199 1.0 5.0 0.00 0.00 0.00 64 1016.6
20260508104510 47 203 2.0 4.0 0.00 0.00 0.00 64 1016.4
20260508103034 47 225 1.0 7.0 0.00 0.00 0.00 65 1016.4
20260508101524 47 211 1.0 3.0 0.00 0.00 0.00 64 1016.5
20260508100027 48 225 2.0 7.0 0.00 0.00 0.00 63 1016.3
20260508094518 48 234 0.0 5.0 0.00 0.00 0.00 63 1016.3
20260508091517 49 150 1.0 10.0 0.00 0.00 0.00 59 1016.4
20260508090016 50 141 6.0 11.0 0.00 0.00 0.00 59 1016.3
20260508084527 50 129 7.0 10.0 0.00 0.00 0.00 58 1016.4
20260508083027 50 130 5.0 10.0 0.00 0.00 0.00 57 1016.4
20260508081524 50 175 5.0 10.0 0.00 0.00 0.00 58 1016.4
20260508080024 50 159 7.0 11.0 0.00 0.00 0.00 58 1016.4
20260508074522 50 134 10.0 12.0 0.00 0.00 0.00 57 1016.4
20260508073028 51 132 7.0 13.0 0.00 0.00 0.00 57 1016.5
20260508071518 51 143 9.0 12.0 0.00 0.00 0.00 57 1016.4
20260508070022 51 141 9.0 13.0 0.00 0.00 0.00 56 1016.3
20260508064529 52 126 6.0 13.0 0.00 0.00 0.00 55 1016.3
20260508063028 51 106 10.0 13.0 0.00 0.00 0.00 56 1016.3
20260508061527 51 170 1.0 11.0 0.00 0.00 0.00 56 1016.2
20260508060025 52 136 9.0 14.0 0.00 0.00 0.00 54 1016.2
20260508054529 52 155 10.0 14.0 0.00 0.00 0.00 54 1016.1
20260508053026 53 123 9.0 13.0 0.00 0.00 0.00 53 1016.1
20260508051520 53 119 9.0 11.0 0.00 0.00 0.00 53 1015.9
20260508050020 53 127 8.0 12.0 0.00 0.00 0.00 54 1015.9
20260508043020 53 174 5.0 10.0 0.00 0.00 0.00 54 1015.8
20260508041509 54 122 8.0 10.0 0.00 0.00 0.00 52 1015.7
20260508040018 56 129 4.0 7.0 0.00 0.00 0.00 49 1015.6
20260508034512 56 136 3.0 8.0 0.00 0.00 0.00 46 1015.5
20260508033023 59 127 4.0 5.0 0.00 0.00 0.00 40 1015.4
20260508030023 62 76 1.0 2.0 0.00 0.00 0.00 36 1015.1
20260508024520 63 297 1.0 4.0 0.00 0.00 0.00 33 1014.9
20260508023025 64 265 1.0 4.0 0.00 0.00 0.00 33 1014.8
20260508021515 65 294 3.0 7.0 0.00 0.00 0.00 33 1014.7
20260508020012 66 283 4.0 9.0 0.00 0.00 0.00 31 1014.7
20260508014513 67 234 3.0 9.0 0.00 0.00 0.00 31 1014.6
20260508013024 68 271 5.0 9.0 0.00 0.00 0.00 30 1014.6
20260508011524 68 273 6.0 11.0 0.00 0.00 0.00 31 1014.5
20260508010031 69 290 5.0 10.0 0.00 0.00 0.00 28 1014.6
20260508004521 69 251 5.0 10.0 0.00 0.00 0.00 29 1014.6
20260508003018 69 254 5.0 14.0 0.00 0.00 0.00 28 1014.7
20260508001519 69 268 8.0 15.0 0.00 0.00 0.00 28 1014.5
20260508000017 70 311 6.0 16.0 0.00 0.00 0.00 28 1014.5
20260507234512 70 304 6.0 12.0 0.00 0.00 0.00 28 1014.4
20260507233026 70 239 7.0 12.0 0.00 0.00 0.00 29 1014.2
20260507231528 70 290 7.0 15.0 0.00 0.00 0.00 29 1014.3
20260507230026 69 242 4.0 10.0 0.00 0.00 0.00 31 1014.3
20260507224524 69 302 3.0 12.0 0.00 0.00 0.00 30 1014.5
20260507223029 70 308 3.0 9.0 0.00 0.00 0.00 30 1014.5
20260507221521 70 250 3.0 11.0 0.00 0.00 0.00 28 1014.7
20260507214527 71 241 8.0 12.0 0.00 0.00 0.00 29 1014.7
20260507213029 69 302 1.0 10.0 0.00 0.00 0.00 30 1014.6
20260507211530 70 288 5.0 15.0 0.00 0.00 0.00 27 1014.8
20260507210028 70 226 9.0 17.0 0.00 0.00 0.00 30 1014.9
20260507204525 70 254 8.0 16.0 0.00 0.00 0.00 30 1014.9
20260507203027 69 317 4.0 9.0 0.00 0.00 0.00 36 1015.0
20260507201528 67 38 2.0 8.0 0.00 0.00 0.00 35 1015.1
20260507200023 68 44 7.0 11.0 0.00 0.00 0.00 37 1015.1
20260507193025 67 46 1.0 11.0 0.00 0.00 0.00 39 1015.2
20260507191516 66 192 2.0 7.0 0.00 0.00 0.00 36 1015.1
20260507184512 64 106 4.0 12.0 0.00 0.00 0.00 38 1015.3
20260507183013 65 122 7.0 10.0 0.00 0.00 0.00 40 1015.3
20260507181525 64 328 3.0 10.0 0.00 0.00 0.00 37 1015.4
20260507180023 65 42 2.0 7.0 0.00 0.00 0.00 38 1015.7
20260507174529 65 302 6.0 10.0 0.00 0.00 0.00 38 1015.8
20260507171526 65 219 2.0 10.0 0.00 0.00 0.00 40 1016.1
20260507170017 63 344 3.0 6.0 0.00 0.00 0.00 43 1016.0
20260507164528 62 342 1.0 8.0 0.00 0.00 0.00 42 1016.0
20260507163012 62 350 4.0 7.0 0.00 0.00 0.00 41 1016.2
20260507161527 60 107 1.0 4.0 0.00 0.00 0.00 41 1016.2
20260507160033 60 66 2.0 8.0 0.00 0.00 0.00 42 1016.3
20260507154526 60 61 5.0 10.0 0.00 0.00 0.00 43 1016.3
20260507153022 59 107 5.0 12.0 0.00 0.00 0.00 48 1016.5
20260507150021 60 57 7.0 12.0 0.00 0.00 0.00 44 1016.3
20260507144528 60 69 6.0 11.0 0.00 0.00 0.00 44 1016.3
20260507141537 61 24 2.0 3.0 0.00 0.00 0.00 39 1015.8